ONEWEB-0396, 50476

Orbit data source: Space-Track

ONEWEB-0396, 50476 is a payload satellite owned by One Web (NAA) (UK) in LEO that was launched on Mon, 27 Dec 2021 UTC via a SOYUZ-2-1B launch vehicle from the Tyuratam Missile And Space Complex (TTMTR). Payload-class satellites include a variety of spacecraft equipped with specific instruments for various scientific and technological missions. These include communications satellites like Starlink; space stations such as the ISS; scientific satellites like the Hubble; Earth observation satellites from companies like Planet Labs, Umbra, and HawkEye 360; GPS; miniature CubeSats for education and research; and military/defense satellites.

Loading next visibility...
Identifier
50476, 2021-132H
Orbit
LEO
Country
Flag of UKUK
Related business
Manufacturer
One Web
Mission
Operational Commercial Communications
Bus & Motor
ARROW, Unknown motor
Mass
148 kg wet, ~140 kg dry
Launch date (UTC)
2021-12-27 (4 years ago)
Launch vehicle
SOYUZ-2-1B
Launch site
Tyuratam Missile And Space Complex (TTMTR)
Object type
Payload
Rocket body
Debris
Shape & HBR
Trap Box + 2 Pan, 6.7 m
Radar Cross Section
3.464 m², Large (>1 m²)

Expand to show TLE details & history
Last TLE update: 2 days ago

TLE from 2 days ago
0 ONEWEB-0396
1 50476U 21132H   26171.35405476  .00000020  00000-0  18568-4 0  9996
2 50476  87.9173 334.8245 0001916  88.2490 271.8862 13.18684926222059
Epoch: 2026-06-20T08:29Z
TLE epoch observation values (Epoch: 2026-06-20T08:29:50.331Z)
Latitude
0.00003°
Longitude
-61.2051°
Altitude
1,192.6 km
Speed
7.257 km/s
True Right ascension
22h 19m 17s
True Declination
0° 00' 00"
Sunlit
Object was in daylight at epoch
Visualization orbit readout
Latitude
Unknown
Longitude
Unknown
Altitude
Unknown
Speed
Unknown
Apparent Right ascension
Unknown
Apparent Declination
Unknown
Sunlit
N/A
Visualization observer readout
Local Sidereal Time
21:34:41
Azimuth
Unknown
Elevation
Unknown
Doppler factor
Unknown
Orbital elements
Apogee altitude
1,188.304 km
Perigee altitude
1,185.405 km
Semi-major axis
7,564.991 km
Eccentricity
0.00019
Inclination
87.9173°
RAAN
334.8245°
Arg. of periapsis
88.249°
True anomaly
271.86426°
Mean anomaly
271.8862°
Eccentric anomaly
271.87523°
Mean motion
3.29861 °/min
Orbital period
109.14 mins
BSTAR
0.000018568
Loading maneuver chart data...
Computing Atmospheric mass density...
Loading historical data...
Loading historical data...
Loading historical data...
Loading historical data...
Loading historical data...
Loading historical data...
Loading historical data...

Documentation

Showing up to 5 results
|